Martha's Vineyard, MA

2:37 AM EDT on May 30, 2017 (GMT -0400)
Martha's Vineyard

Weather History for KMVY - November, 2012

Change the Weather History Date:

Tuesday, November 6, 2012

  Actual Average Record
Temperature  
Mean Temperature 36 °F -  
Max Temperature 44 °F 56 °F 69 °F (1948)
Min Temperature 30 °F 40 °F 19 °F (2011)
Degree Days  
Heating Degree Days 28    
Moisture  
Dew Point 24 °F    
Average Humidity 60    
Maximum Humidity 75    
Minimum Humidity 47    
Precipitation  
Precipitation 0.00 in - - ()
Sea Level Pressure  
Sea Level Pressure 30.17 in    
Wind  
Wind Speed 8 mph (NNE)    
Max Wind Speed 15 mph    
Max Gust Speed 17 mph    
Visibility 10 miles    
Events      
Averages and records for this station are not official NWS values.
T = Trace of Precipitation, MM = Missing Value Source: NWS Daily Summary

Daily Weather History Graph

Daily Weather History Graph

Search for Another Location

Airport or City:

Trip Planner

Search our weather history database for the weather conditions in past years. The results will help you decide how hot, cold, wet, or windy it might be!

Date:

Astronomy

Nov. 06, 2012 Rise Set
Actual Time 6:20 AM EST 4:31 PM EST
Civil Twilight 5:51 AM EST 5:00 PM EST
Nautical Twilight 5:18 AM EST 5:33 PM EST
Astronomical Twilight 4:46 AM EST 6:05 PM EST
Moon 11:07 PM EST (11/6) 12:10 PM EST (11/6)
Length of Visible Light 11h 08m
Length of Day
10h 10m
Waning Gibbous, 53% of the Moon is Illuminated
Nov 6
Waning Gibbous
Nov 6
Last Quarter
Nov 13
New
Nov 20
First Quarter
Nov 28
Full

Hourly Weather History & Observations

Time (EST) Temp. Windchill Dew Point Humidity Pressure Visibility Wind Dir Wind Speed Gust Speed Precip Events Conditions
12:53 AM 35.1 °F 27.4 °F 19.9 °F 54% 30.12 in 10.0 mi North 10.4 mph - N/A   Clear
1:53 AM 33.1 °F 25.5 °F 21.0 °F 61% 30.14 in 10.0 mi North 9.2 mph - N/A   Clear
2:53 AM 33.1 °F 26.9 °F 19.9 °F 59% 30.15 in 10.0 mi NNW 6.9 mph - N/A   Clear
3:53 AM 30.9 °F 25.2 °F 19.0 °F 61% 30.14 in 10.0 mi North 5.8 mph - N/A   Clear
4:53 AM 30.0 °F 23.2 °F 19.9 °F 66% 30.15 in 10.0 mi North 6.9 mph - N/A   Clear
5:53 AM 30.9 °F 24.3 °F 19.9 °F 64% 30.16 in 10.0 mi North 6.9 mph - N/A   Clear
6:53 AM 30.9 °F 25.2 °F 21.0 °F 67% 30.19 in 10.0 mi North 5.8 mph - N/A   Clear
7:53 AM 37.0 °F 29.8 °F 21.9 °F 54% 30.21 in 10.0 mi North 10.4 mph - N/A   Clear
8:53 AM 39.9 °F 33.4 °F 23.0 °F 51% 30.21 in 10.0 mi NNW 10.4 mph - N/A   Clear
9:53 AM 41.0 °F 36.4 °F 21.9 °F 47% 30.22 in 10.0 mi NNE 6.9 mph - N/A   Clear
10:53 AM 42.1 °F - 23.0 °F 47% 30.22 in 10.0 mi Calm Calm - N/A   Clear
11:53 AM 41.0 °F - 23.0 °F 49% 30.21 in 10.0 mi Calm Calm - N/A   Mostly Cloudy
12:53 PM 43.0 °F 38.8 °F 24.1 °F 47% 30.19 in 10.0 mi ESE 6.9 mph - N/A   Clear
1:53 PM 43.0 °F 39.5 °F 24.1 °F 47% 30.18 in 10.0 mi North 5.8 mph - N/A   Clear
2:53 PM 42.1 °F 37.1 °F 23.0 °F 47% 30.17 in 10.0 mi East 8.1 mph - N/A   Clear
3:53 PM 41.0 °F 38.0 °F 25.0 °F 53% 30.18 in 10.0 mi NNE 4.6 mph - N/A   Clear
4:53 PM 36.0 °F 32.1 °F 25.0 °F 64% 30.18 in 10.0 mi NNE 4.6 mph - N/A   Clear
5:53 PM 34.0 °F 27.2 °F 25.0 °F 70% 30.18 in 10.0 mi NNE 8.1 mph - N/A   Clear
6:53 PM 33.1 °F 27.7 °F 25.0 °F 72% 30.20 in 10.0 mi NNE 5.8 mph - N/A   Clear
7:53 PM 33.1 °F 26.9 °F 24.1 °F 70% 30.19 in 10.0 mi NE 6.9 mph - N/A   Clear
8:53 PM 33.1 °F 28.7 °F 24.1 °F 70% 30.18 in 10.0 mi NNE 4.6 mph - N/A   Clear
9:40 PM 37.4 °F 31.4 °F 30.2 °F 75% 30.15 in 10.0 mi NE 8.1 mph - N/A   Mostly Cloudy
9:53 PM 39.0 °F 31.4 °F 30.9 °F 73% 30.13 in 10.0 mi NE 12.7 mph - N/A   Mostly Cloudy
10:53 PM 42.1 °F 36.6 °F 33.1 °F 70% 30.14 in 10.0 mi ENE 9.2 mph 17.3 mph N/A   Overcast
11:05 PM 42.8 °F 37.0 °F 33.8 °F 70% 30.12 in 10.0 mi NE 10.4 mph - N/A   Overcast
11:53 PM 44.1 °F 37.1 °F 32.0 °F 63% 30.10 in 10.0 mi ENE 15.0 mph - N/A   Overcast